Weather History for Sanford, ME

Change the Weather History Date:

Tuesday, March 6, 2012

  Actual Average Record
Temperature  
Mean Temperature 17 °F -  
Max Temperature 33 °F 35 °F 55 °F (2011)
Min Temperature 1 °F 18 °F -14 °F (2014)
Degree Days  
Heating Degree Days 48    
Moisture  
Dew Point 2 °F    
Average Humidity 50    
Maximum Humidity 100    
Minimum Humidity 22    
Precipitation  
Precipitation 0.00 in - - ()
Sea Level Pressure  
Sea Level Pressure 30.46 in    
Wind  
Wind Speed 4 mph (WNW)    
Max Wind Speed 12 mph    
Max Gust Speed 20 mph    
Visibility 10 miles    
Events      
Averages and records for this station are not official NWS values.
T = Trace of Precipitation, MM = Missing Value Source: NWS Daily Summary

Daily Weather History Graph

Daily Weather History Graph

Search for Another Location

Airport:

Trip Planner

Search our weather history database for the weather conditions in past years. The results will help you decide how hot, cold, wet, or windy it might be!

Date:

Astronomy

Mar. 06, 2012 Rise Set
Actual Time 6:09 AM EST 5:38 PM EST
Civil Twilight 5:41 AM EST 6:07 PM EST
Nautical Twilight 5:08 AM EST 6:40 PM EST
Astronomical Twilight 4:35 AM EST 7:13 PM EST
Moon 3:59 PM EST (3/6) 4:46 AM EST (3/6)
Length of Visible Light 12h 25m
Length of Day
11h 28m
Waxing Gibbous, 96% of the Moon is Illuminated
Mar 6
Waxing Gibbous
Mar 8
Full
Mar 14
Last Quarter
Mar 22
New
Mar 30
First Quarter

Hourly Weather History & Observations

Time (EST) Temp. Windchill Dew Point Humidity Pressure Visibility Wind Dir Wind Speed Gust Speed Precip Events Conditions
12:35 AM 15.8 °F 8.6 °F 1.4 °F 53% 30.29 in 10.0 mi NW 4.6 mph - N/A   Clear
12:55 AM 15.8 °F 7.2 °F 5.0 °F 62% 30.30 in 10.0 mi NW 5.8 mph - N/A   Clear
1:15 AM 15.8 °F 10.2 °F 1.4 °F 53% 30.30 in 10.0 mi NW 3.5 mph - N/A   Clear
1:35 AM 15.8 °F 8.6 °F 5.0 °F 62% 30.30 in 10.0 mi NW 4.6 mph - N/A   Clear
1:55 AM 10.4 °F 2.2 °F -0.4 °F 62% 30.30 in 10.0 mi WNW 4.6 mph - N/A   Clear
2:15 AM 14.0 °F 5.1 °F 5.0 °F 67% 30.31 in 10.0 mi NW 5.8 mph - N/A   Clear
2:55 AM 14.0 °F 3.9 °F 5.0 °F 67% 30.32 in 10.0 mi WNW 6.9 mph - N/A   Clear
3:15 AM 12.2 °F - 3.2 °F 67% 30.33 in 10.0 mi Calm Calm - N/A   Clear
3:35 AM 6.8 °F - -0.4 °F 72% 30.34 in 10.0 mi Calm Calm - N/A   Clear
3:55 AM 6.8 °F - 1.4 °F 79% 30.35 in 10.0 mi Calm Calm - N/A   Clear
4:15 AM 6.8 °F - -0.4 °F 72% 30.36 in 10.0 mi Calm Calm - N/A   Clear
4:35 AM 5.0 °F - 1.4 °F 85% 30.37 in 10.0 mi Calm Calm - N/A   Clear
4:55 AM 5.0 °F - -2.2 °F 72% 30.38 in 10.0 mi Calm Calm - N/A   Clear
5:15 AM 3.2 °F - 1.4 °F 92% 30.39 in 10.0 mi Calm Calm - N/A   Clear
5:35 AM 1.4 °F - -2.2 °F 85% 30.40 in 10.0 mi Calm Calm - N/A   Clear
5:55 AM 3.2 °F - 3.2 °F 100% 30.42 in 10.0 mi Calm Calm - N/A   Clear
6:15 AM 3.2 °F - -0.4 °F 85% 30.43 in 8.0 mi Calm Calm - N/A   Clear
6:35 AM 1.4 °F - -2.2 °F 85% 30.45 in 9.0 mi Calm Calm - N/A   Clear
6:55 AM 3.2 °F - -2.2 °F 78% 30.46 in 9.0 mi Calm Calm - N/A   Clear
7:35 AM 15.8 °F - 1.4 °F 53% 30.48 in 10.0 mi Calm Calm - N/A   Clear
7:55 AM 15.8 °F 8.6 °F 3.2 °F 58% 30.49 in 10.0 mi WNW 4.6 mph - N/A   Clear
8:15 AM 17.6 °F 12.3 °F 1.4 °F 49% 30.49 in 10.0 mi NW 3.5 mph - N/A   Clear
8:35 AM 19.4 °F 12.8 °F 3.2 °F 49% 30.49 in 10.0 mi NNW 4.6 mph - N/A   Clear
8:55 AM 21.2 °F 12.6 °F 3.2 °F 46% 30.50 in 10.0 mi WNW 6.9 mph - N/A   Clear
9:15 AM 21.2 °F 13.6 °F 3.2 °F 46% 30.50 in 10.0 mi NNW 5.8 mph - N/A   Clear
9:35 AM 23.0 °F 13.9 °F 1.4 °F 39% 30.50 in 10.0 mi NNW 8.1 mph - N/A   Clear
9:55 AM 24.8 °F 15.3 °F 3.2 °F 40% 30.50 in 10.0 mi NW 9.2 mph - N/A   Clear
10:15 AM 24.8 °F 16.1 °F 1.4 °F 36% 30.50 in 10.0 mi NNW 8.1 mph - N/A   Clear
10:35 AM 26.6 °F 20.0 °F 1.4 °F 34% 30.50 in 10.0 mi West 5.8 mph - N/A   Clear
10:55 AM 26.6 °F 20.0 °F -0.4 °F 31% 30.50 in 10.0 mi NW 5.8 mph - N/A   Clear
11:15 AM 28.4 °F 23.3 °F 3.2 °F 34% 30.50 in 10.0 mi North 4.6 mph - N/A   Clear
11:35 AM 28.4 °F 24.6 °F 1.4 °F 31% 30.49 in 10.0 mi North 3.5 mph - N/A   Clear
11:55 AM 30.2 °F 23.4 °F 1.4 °F 29% 30.50 in 10.0 mi SW 6.9 mph - N/A   Clear
12:15 PM 30.2 °F 21.9 °F -0.4 °F 27% 30.49 in 10.0 mi WNW 9.2 mph - N/A   Clear
12:35 PM 30.2 °F 21.9 °F 3.2 °F 32% 30.49 in 10.0 mi West 9.2 mph - N/A   Clear
12:55 PM 30.2 °F 21.9 °F 1.4 °F 29% 30.48 in 10.0 mi West 9.2 mph - N/A   Clear
1:15 PM 30.2 °F 20.8 °F -0.4 °F 27% 30.47 in 10.0 mi West 11.5 mph 16.1 mph N/A   Clear
1:35 PM 32.0 °F 24.8 °F -0.4 °F 25% 30.47 in 10.0 mi NW 8.1 mph - N/A   Clear
1:55 PM 33.8 °F 28.6 °F 1.4 °F 25% 30.47 in 10.0 mi NW 5.8 mph - N/A   Clear
2:35 PM 33.8 °F 25.8 °F -0.4 °F 23% 30.47 in 10.0 mi NNW 10.4 mph - N/A   Clear
2:55 PM 33.8 °F 27.0 °F -2.2 °F 22% 30.48 in 10.0 mi NW 8.1 mph 16.1 mph N/A   Clear
3:15 PM 33.8 °F 27.0 °F -0.4 °F 23% 30.48 in 10.0 mi NW 8.1 mph - N/A   Clear
3:35 PM 33.8 °F 25.8 °F -2.2 °F 22% 30.48 in 10.0 mi West 10.4 mph 19.6 mph N/A   Clear
3:55 PM 33.8 °F 25.3 °F -2.2 °F 22% 30.49 in 10.0 mi WNW 11.5 mph 17.3 mph N/A   Clear
4:15 PM 33.8 °F 27.7 °F -2.2 °F 22% 30.50 in 10.0 mi WNW 6.9 mph 16.1 mph N/A   Clear
4:35 PM 33.8 °F 25.3 °F -2.2 °F 22% 30.49 in 10.0 mi WNW 11.5 mph - N/A   Clear
4:55 PM 33.8 °F 27.0 °F -0.4 °F 23% 30.50 in 10.0 mi WNW 8.1 mph - N/A   Clear
5:15 PM 33.8 °F 27.0 °F -0.4 °F 23% 30.51 in 10.0 mi WNW 8.1 mph - N/A   Clear
5:35 PM 32.0 °F 26.4 °F -0.4 °F 25% 30.51 in 10.0 mi WNW 5.8 mph - N/A   Clear
5:55 PM 30.2 °F - -2.2 °F 25% 30.52 in 10.0 mi Calm Calm - N/A   Clear
6:15 PM 26.6 °F 22.6 °F 3.2 °F 37% 30.52 in 10.0 mi SW 3.5 mph - N/A   Clear
6:35 PM 23.0 °F 17.0 °F 3.2 °F 43% 30.52 in 10.0 mi WSW 4.6 mph - N/A   Clear
6:55 PM 23.0 °F - 6.8 °F 50% 30.52 in 10.0 mi Calm Calm - N/A   Clear
7:55 PM 19.4 °F - 10.4 °F 68% 30.53 in 10.0 mi Calm Calm - N/A   Clear
8:35 PM 17.6 °F - 3.2 °F 53% 30.54 in 10.0 mi Calm Calm - N/A   Clear
8:55 PM 17.6 °F - 12.2 °F 79% 30.55 in 10.0 mi Calm Calm - N/A   Clear
9:15 PM 14.0 °F - 8.6 °F 79% 30.55 in 10.0 mi Calm Calm - N/A   Clear
9:35 PM 15.8 °F 10.2 °F 6.8 °F 68% 30.55 in 10.0 mi WSW 3.5 mph - N/A   Clear
10:15 PM 15.8 °F - 6.8 °F 68% 30.55 in 10.0 mi Calm Calm - N/A   Clear
10:35 PM 15.8 °F - 10.4 °F 79% 30.54 in 10.0 mi Calm Calm - N/A   Clear
10:55 PM 14.0 °F - 6.8 °F 73% 30.54 in 10.0 mi Calm Calm - N/A   Clear
11:15 PM 12.2 °F - 10.4 °F 92% 30.53 in 10.0 mi Calm Calm - N/A   Clear
11:55 PM 12.2 °F 6.1 °F 8.6 °F 85% 30.53 in 10.0 mi WSW 3.5 mph - N/A   Clear